CW6391 Weather Reports


Display with metric or nautical units.
time (UTC)temp
F
wind
direction
speed
MPH
gust
MPH
rain 1hr
in
rain 24hr
in
rain mn
in
humidity
%
barometer
mb
20260503203158 64 221 0.0 2.0 0.00 0.00 0.00 47 1011.8
20260503202706 65 227 0.0 1.0 0.00 0.00 0.00 47 1011.8
20260503202200 65 192 0.0 2.0 0.00 0.00 0.00 46 1011.8
20260503201703 65 254 1.0 2.0 0.00 0.00 0.00 45 1011.8
20260503201157 65 241 0.0 2.0 0.00 0.00 0.00 45 1011.8
20260503200657 66 256 0.0 2.0 0.00 0.00 0.00 44 1011.8
20260503200206 66 260 0.0 1.0 0.00 0.00 0.00 43 1011.8
20260503195701 66 249 0.0 1.0 0.00 0.00 0.00 43 1011.8
20260503195157 67 191 0.0 0.0 0.00 0.00 0.00 42 1011.8
20260503194658 67 279 0.0 1.0 0.00 0.00 0.00 41 1011.8
20260503194201 67 315 0.0 2.0 0.00 0.00 0.00 41 1011.8
20260503193700 67 315 0.0 1.0 0.00 0.00 0.00 40 1011.8
20260503193158 68 242 0.0 1.0 0.00 0.00 0.00 39 1011.8
20260503192700 68 308 0.0 2.0 0.00 0.00 0.00 39 1011.8
20260503192158 68 286 0.0 1.0 0.00 0.00 0.00 38 1011.8
20260503191700 69 295 0.0 2.0 0.00 0.00 0.00 38 1011.8
20260503191204 69 280 1.0 2.0 0.00 0.00 0.00 37 1011.8
20260503190700 69 298 1.0 2.0 0.00 0.00 0.00 37 1011.4
20260503190157 69 302 0.0 2.0 0.00 0.00 0.00 36 1011.4
20260503185658 70 325 1.0 2.0 0.00 0.00 0.00 35 1011.4
20260503185201 70 301 0.0 1.0 0.00 0.00 0.00 36 1011.4
20260503184706 70 301 0.0 1.0 0.00 0.00 0.00 35 1011.4
20260503184200 71 274 0.0 1.0 0.00 0.00 0.00 35 1011.4
20260503183700 71 303 0.0 2.0 0.00 0.00 0.00 34 1011.4
20260503183157 71 318 0.0 2.0 0.00 0.00 0.00 34 1011.4
20260503182657 71 290 0.0 2.0 0.00 0.00 0.00 34 1011.4
20260503182201 71 270 0.0 2.0 0.00 0.00 0.00 33 1011.4
20260503181657 72 252 0.0 3.0 0.00 0.00 0.00 33 1011.1
20260503181157 72 305 1.0 5.0 0.00 0.00 0.00 32 1011.1
20260503180657 72 309 2.0 5.0 0.00 0.00 0.00 32 1011.1
20260503180200 72 310 1.0 5.0 0.00 0.00 0.00 31 1011.1
20260503175657 73 315 1.0 7.0 0.00 0.00 0.00 31 1011.1
20260503175201 73 312 1.0 5.0 0.00 0.00 0.00 31 1011.1
20260503174658 73 279 1.0 5.0 0.00 0.00 0.00 31 1011.1
20260503174158 73 321 1.0 6.0 0.00 0.00 0.00 31 1011.1
20260503173658 74 321 2.0 5.0 0.00 0.00 0.00 30 1011.1
20260503173157 74 312 2.0 6.0 0.00 0.00 0.00 29 1011.1
20260503172657 75 255 1.0 6.0 0.00 0.00 0.00 28 1011.1
20260503172203 75 299 1.0 6.0 0.00 0.00 0.00 28 1011.1
20260503171700 75 283 2.0 7.0 0.00 0.00 0.00 27 1011.1
20260503171201 75 293 3.0 7.0 0.00 0.00 0.00 27 1011.1
20260503170657 76 247 1.0 7.0 0.00 0.00 0.00 26 1011.1
20260503170157 76 277 1.0 8.0 0.00 0.00 0.00 27 1011.1
20260503160158 81 327 3.0 7.0 0.00 0.00 0.00 21 1010.8
20260503150704 82 186 3.0 10.0 0.00 0.00 0.00 16 1010.8
20260503150157 84 167 2.0 4.0 0.00 0.00 0.00 16 1010.8
20260503140157 82 195 2.0 8.0 0.00 0.00 0.00 17 1011.4
20260503131157 81 197 3.0 10.0 0.00 0.00 0.00 18 1012.1
20260503130657 82 184 6.0 10.0 0.00 0.00 0.00 17 1012.1
20260503130157 83 173 2.0 9.0 0.00 0.00 0.00 17 1012.1
20260503120200 81 194 5.0 8.0 0.00 0.00 0.00 18 1012.9
20260503110700 83 242 1.0 4.0 0.00 0.00 0.00 19 1013.5
20260503110157 82 238 1.0 6.0 0.00 0.00 0.00 19 1013.5
20260503100157 76 135 3.0 7.0 0.00 0.00 0.00 25 1014.2
20260503090158 73 174 3.0 9.0 0.00 0.00 0.00 27 1015.0
20260503081201 69 174 3.0 8.0 0.00 0.00 0.00 29 1015.3
20260503080700 70 159 4.0 7.0 0.00 0.00 0.00 28 1015.3
20260503080158 69 151 3.0 9.0 0.00 0.00 0.00 28 1015.3
20260503072704 65 139 5.0 10.0 0.00 0.00 0.00 31 1015.3
20260503072157 65 169 6.0 11.0 0.00 0.00 0.00 30 1015.3
20260503071704 65 172 5.0 12.0 0.00 0.00 0.00 30 1015.3
20260503071200 66 130 5.0 12.0 0.00 0.00 0.00 29 1015.3
20260503070704 65 150 3.0 10.0 0.00 0.00 0.00 30 1015.3
20260503070200 66 118 2.0 3.0 0.00 0.00 0.00 33 1015.3
20260503060157 59 332 0.0 1.0 0.00 0.00 0.00 42 1015.3
20260503054703 58 121 0.0 1.0 0.00 0.00 0.00 45 1015.3
20260503054200 57 129 0.0 2.0 0.00 0.00 0.00 46 1015.3
20260503053700 57 57 0.0 2.0 0.00 0.00 0.00 46 1015.0
20260503053200 55 64 0.0 3.0 0.00 0.00 0.00 49 1015.0
20260503052657 54 100 1.0 4.0 0.00 0.00 0.00 50 1015.0
20260503052206 54 105 1.0 4.0 0.00 0.00 0.00 51 1015.0
20260503051700 53 127 1.0 4.0 0.00 0.00 0.00 52 1015.0
20260503051157 53 98 2.0 3.0 0.00 0.00 0.00 54 1015.3
20260503050658 52 107 0.0 3.0 0.00 0.00 0.00 56 1015.3
20260503050157 51 102 1.0 2.0 0.00 0.00 0.00 58 1015.3
20260503045700 50 77 0.0 3.0 0.00 0.00 0.00 59 1015.3
20260503045204 49 124 1.0 4.0 0.00 0.00 0.00 59 1015.0
20260503044703 49 125 1.0 4.0 0.00 0.00 0.00 60 1015.3
20260503044157 49 120 1.0 3.0 0.00 0.00 0.00 60 1015.3
20260503043703 49 128 1.0 3.0 0.00 0.00 0.00 60 1015.3
20260503043157 49 83 2.0 5.0 0.00 0.00 0.00 60 1015.3
20260503042700 49 90 2.0 5.0 0.00 0.00 0.00 60 1015.3
20260503042158 49 81 1.0 4.0 0.00 0.00 0.00 60 1015.3
20260503041657 49 102 2.0 4.0 0.00 0.00 0.00 60 1015.3
20260503041204 49 89 1.0 4.0 0.00 0.00 0.00 60 1015.3
20260503040700 49 108 2.0 4.0 0.00 0.00 0.00 60 1015.3
20260503040157 49 90 2.0 4.0 0.00 0.00 0.00 60 1015.3
20260503035657 49 84 2.0 4.0 0.00 0.00 0.00 60 1015.3
20260503035203 49 140 1.0 3.0 0.00 0.00 0.00 60 1015.3
20260503034700 49 65 1.0 3.0 0.00 0.00 0.00 60 1015.3
20260503034206 49 71 2.0 3.0 0.00 0.00 0.00 60 1015.3
20260503033706 49 76 1.0 2.0 0.00 0.00 0.00 60 1015.3
20260503033157 49 114 0.0 4.0 0.00 0.00 0.00 60 1015.3
20260503032703 49 105 2.0 4.0 0.00 0.00 0.00 60 1015.3
20260503032203 49 66 2.0 3.0 0.00 0.00 0.00 60 1015.3
20260503031657 50 99 1.0 4.0 0.00 0.00 0.00 59 1015.3
20260503031157 50 78 1.0 3.0 0.00 0.00 0.00 59 1015.3
20260503030706 50 93 1.0 2.0 0.00 0.00 0.00 59 1015.3
20260503030158 50 119 0.0 2.0 0.00 0.00 0.00 59 1015.3
20260503025700 50 111 1.0 2.0 0.00 0.00 0.00 59 1015.3
20260503025200 50 59 0.0 2.0 0.00 0.00 0.00 58 1015.3
20260503024700 50 173 0.0 2.0 0.00 0.00 0.00 58 1015.3
20260503024201 50 136 0.0 3.0 0.00 0.00 0.00 58 1015.3
20260503023700 50 105 1.0 3.0 0.00 0.00 0.00 58 1015.3
20260503023200 50 78 1.0 3.0 0.00 0.00 0.00 57 1015.6
20260503022657 51 88 1.0 3.0 0.00 0.00 0.00 57 1015.6
20260503022158 51 85 1.0 3.0 0.00 0.00 0.00 57 1015.6
20260503021657 51 83 1.0 3.0 0.00 0.00 0.00 57 1015.6
20260503021157 51 83 2.0 3.0 0.00 0.00 0.00 57 1015.6
20260503020658 51 94 1.0 3.0 0.00 0.00 0.00 57 1015.6
20260503020200 51 88 1.0 4.0 0.00 0.00 0.00 57 1015.6
20260503015701 51 86 2.0 4.0 0.00 0.00 0.00 56 1015.6
20260503015200 51 85 2.0 4.0 0.00 0.00 0.00 56 1015.6
20260503014700 51 103 1.0 3.0 0.00 0.00 0.00 55 1015.6
20260503014200 51 117 1.0 2.0 0.00 0.00 0.00 55 1015.6
20260503013657 51 106 1.0 2.0 0.00 0.00 0.00 55 1015.6
20260503013157 52 174 0.0 2.0 0.00 0.00 0.00 55 1015.6
20260503012657 52 113 0.0 1.0 0.00 0.00 0.00 55 1015.6
20260503012157 52 29 0.0 2.0 0.00 0.00 0.00 54 1015.6
20260503011657 52 52 1.0 2.0 0.00 0.00 0.00 54 1015.6
20260503011157 52 68 1.0 2.0 0.00 0.00 0.00 55 1015.6
20260503010703 52 98 0.0 2.0 0.00 0.00 0.00 55 1015.6
20260503010157 52 92 1.0 2.0 0.00 0.00 0.00 54 1015.6
20260503005657 52 123 0.0 2.0 0.00 0.00 0.00 54 1015.6
20260503005157 52 76 1.0 3.0 0.00 0.00 0.00 54 1015.6
20260503004657 52 88 1.0 4.0 0.00 0.00 0.00 54 1015.6
20260503004157 52 85 1.0 4.0 0.00 0.00 0.00 54 1015.6
20260503003657 52 98 1.0 4.0 0.00 0.00 0.00 54 1015.6
20260503003203 52 117 2.0 4.0 0.00 0.00 0.00 53 1015.6
20260503002657 52 109 1.0 3.0 0.00 0.00 0.00 53 1015.6
20260503002203 53 140 0.0 4.0 0.00 0.00 0.00 53 1015.6
20260503001704 53 96 2.0 4.0 0.00 0.00 0.00 53 1015.6
20260503001157 53 96 1.0 4.0 0.00 0.00 0.00 52 1015.6
20260503000704 53 85 2.0 4.0 0.00 0.00 0.00 52 1015.6
20260503000157 53 118 1.0 4.0 0.00 0.00 0.00 52 1016.0
20260502235700 53 116 1.0 3.0 0.00 0.00 0.00 52 1016.0
20260502235203 53 98 0.0 3.0 0.00 0.00 0.00 52 1016.0
20260502234657 53 137 1.0 4.0 0.00 0.00 0.00 51 1016.0
20260502234201 54 94 2.0 4.0 0.00 0.00 0.00 51 1016.0
20260502233658 54 122 1.0 4.0 0.00 0.00 0.00 51 1016.0
20260502233157 54 118 2.0 5.0 0.00 0.00 0.00 51 1016.0
20260502232703 54 104 2.0 5.0 0.00 0.00 0.00 51 1016.0
20260502232157 54 83 1.0 3.0 0.00 0.00 0.00 50 1016.0
20260502231657 54 133 1.0 4.0 0.00 0.00 0.00 50 1016.0
20260502231200 54 136 1.0 3.0 0.00 0.00 0.00 50 1016.0
20260502230700 54 81 1.0 4.0 0.00 0.00 0.00 50 1016.0
20260502230200 54 93 2.0 4.0 0.00 0.00 0.00 50 1016.0
20260502225657 55 90 2.0 4.0 0.00 0.00 0.00 50 1016.0
20260502225203 55 83 2.0 4.0 0.00 0.00 0.00 49 1016.3
20260502224657 55 89 1.0 3.0 0.00 0.00 0.00 49 1016.3
20260502224200 55 112 1.0 3.0 0.00 0.00 0.00 49 1016.3
20260502223703 55 98 1.0 4.0 0.00 0.00 0.00 49 1016.3
20260502223158 55 92 2.0 4.0 0.00 0.00 0.00 48 1016.3
20260502222706 56 74 0.0 2.0 0.00 0.00 0.00 48 1016.3
20260502222157 56 171 1.0 4.0 0.00 0.00 0.00 48 1016.3
20260502221700 56 86 2.0 5.0 0.00 0.00 0.00 47 1016.3
20260502221200 56 80 1.0 5.0 0.00 0.00 0.00 46 1016.3
20260502220700 57 76 2.0 3.0 0.00 0.00 0.00 45 1016.3
20260502220200 57 82 2.0 3.0 0.00 0.00 0.00 44 1016.3
20260502215700 58 146 1.0 2.0 0.00 0.00 0.00 45 1016.3
20260502215157 58 120 1.0 4.0 0.00 0.00 0.00 45 1016.3
20260502214658 58 110 1.0 2.0 0.00 0.00 0.00 44 1016.3
20260502214200 58 159 1.0 3.0 0.00 0.00 0.00 44 1016.3
20260502213657 58 97 1.0 3.0 0.00 0.00 0.00 44 1016.3
20260502213157 59 94 1.0 3.0 0.00 0.00 0.00 44 1016.3
20260502212700 59 117 0.0 2.0 0.00 0.00 0.00 43 1016.3
20260502212203 59 146 1.0 2.0 0.00 0.00 0.00 43 1016.3
20260502211657 60 177 0.0 2.0 0.00 0.00 0.00 42 1016.3
20260502211200 60 106 0.0 2.0 0.00 0.00 0.00 42 1016.3
20260502210657 60 133 0.0 1.0 0.00 0.00 0.00 42 1016.3
20260502210200 60 176 1.0 3.0 0.00 0.00 0.00 42 1016.3
20260502205703 60 128 1.0 4.0 0.00 0.00 0.00 41 1016.3
20260502205200 61 150 1.0 3.0 0.00 0.00 0.00 41 1016.3
20260502204657 61 93 1.0 3.0 0.00 0.00 0.00 41 1016.3
20260502204201 62 127 1.0 3.0 0.00 0.00 0.00 40 1016.3
20260502203700 62 112 1.0 4.0 0.00 0.00 0.00 40 1016.7